Home > Weather > Carouge > Past weeks

Flag for Switzerland Past Weather in Carouge, Geneva, Switzerland — Yesterday and Last 2 Weeks

Now
78 °F

Passing clouds.


Feels Like: 79 °F
Forecast: 56 / 82 °F
Wind: 9 mph from Southwest

Location: Geneve-Cointrin

Current Time: Jun 28, 2016 at 8:42:13 PM

Latest Report: Jun 28, 2016 at 8:00 PM


Visibility: 47 mi

Pressure: 29.96 "Hg

Humidity: 46%

Dew Point: 55 °F

Location of CarougeLocation

Past Weather in Carouge — Graph

°F

Carouge Temperature Yesterday

Maximum temperature yesterday: 74 °F (at 6:00 PM)
Minimum temperature yesterday: 54 °F (at 6:00 AM)
Average temperature yesterday: 65 °F

High & Low Weather Summary for the Past Weeks

 TemperatureHumidityPressure
High89 °F (Jun 23, 6:00 PM)95% (Jun 13, 9:00 PM)30.28 "Hg (Jun 13, 9:00 PM)
Low47 °F (Jun 20, 6:00 AM)31% (Jun 24, 4:00 PM)29.56 "Hg (Jun 15, 7:00 PM)
Average64 °F71%30.01 "Hg
* Reported Jun 13 7:00 PM — Jun 28 7:00 PM, Carouge, Weather by CustomWeather, © 2016

Note: Actual official high and low records may vary slightly from our data, if they occured in-between our weather recording intervals... More about our weather records

Advertising

Carouge Weather History for the Previous 24 Hours

Scroll right to see more
 ConditionsComfort  
Time TempWeatherWind HumidityBarometerVisibility
7:00 PM
Tue, Jun 28
80 °FWarm.13 mph48%29.95 "HgN/A
6:00 PM80 °FWarm.10 mph46%29.95 "HgN/A
5:00 PM80 °FPassing clouds.10 mph43%29.96 "Hg47 mi
4:00 PM79 °FWarm.9 mph45%29.98 "HgN/A
3:00 PM79 °FWarm.8 mph43%30.00 "HgN/A
2:00 PM76 °FPassing clouds.6 mph47%30.03 "Hg37 mi
1:00 PM73 °FMild.6 mph51%30.06 "HgN/A
12:00 PM71 °FMild.5 mph52%30.07 "HgN/A
11:00 AM69 °FPassing clouds.2 mph59%30.09 "Hg37 mi
10:00 AM67 °FMild.2 mph62%30.12 "HgN/A
9:00 AM64 °FMild.1 mph69%30.14 "HgN/A
8:00 AM61 °FPassing clouds.2 mph77%30.14 "Hg37 mi
7:00 AM56 °FCool.No wind87%30.15 "HgN/A
6:00 AM54 °FCool.1 mph89%30.15 "HgN/A
5:00 AM55 °FClear.2 mph88%30.16 "Hg25 mi
4:00 AM56 °FCool.1 mph87%30.16 "HgN/A
3:00 AM57 °FCool.No wind86%30.16 "HgN/A
2:00 AM58 °FClear.1 mph84%30.17 "Hg25 mi
1:00 AM59 °FCool.2 mph81%30.17 "HgN/A
12:00 AM61 °FCool.3 mph74%30.16 "HgN/A
11:00 PM
Mon, Jun 27
65 °FPassing clouds.6 mph61%30.14 "Hg31 mi
10:00 PM67 °FMild.5 mph56%30.13 "HgN/A
9:00 PM69 °FMild.5 mph55%30.12 "HgN/A
8:00 PM71 °FPartly sunny.2 mph46%30.10 "Hg37 mi
Weather by CustomWeather, © 2016

See weather overviewHow to use our weather pages